| time (UTC) | temp F | wind direction | speed MPH | gust MPH | rain 1hr in | rain 24hr in | rain mn in | humidity % | barometer mb |
| 20260831071603 | 85 | 175 | 9.0 | 16.0 | 0.00 | 0.00 | 0.00 | 51 | 1014.2 |
| 20260831071104 | 85 | 172 | 8.0 | 16.0 | 0.00 | 0.00 | 0.00 | 50 | 1014.1 |
| 20260831070604 | 85 | 166 | 9.0 | 17.0 | 0.00 | 0.00 | 0.00 | 50 | 1014.2 |
| 20260831070104 | 85 | 171 | 9.0 | 20.0 | 0.00 | 0.00 | 0.00 | 50 | 1014.2 |
| 20260831065104 | 86 | 178 | 12.0 | 20.0 | 0.00 | 0.00 | 0.00 | 49 | 1014.1 |
| 20260831063103 | 86 | 167 | 10.0 | 15.0 | 0.00 | 0.00 | 0.00 | 49 | 1014.1 |
| 20260831062604 | 86 | 173 | 9.0 | 16.0 | 0.00 | 0.00 | 0.00 | 49 | 1014.1 |
| 20260831061604 | 86 | 172 | 10.0 | 14.0 | 0.00 | 0.00 | 0.00 | 49 | 1014.1 |
| 20260831061104 | 86 | 173 | 10.0 | 17.0 | 0.00 | 0.00 | 0.00 | 49 | 1014.1 |
| 20260831060604 | 86 | 176 | 8.0 | 17.0 | 0.00 | 0.00 | 0.00 | 49 | 1014.1 |
| 20260831060104 | 86 | 163 | 7.0 | 16.0 | 0.00 | 0.00 | 0.00 | 49 | 1014.1 |
| 20260831055104 | 86 | 168 | 10.0 | 16.0 | 0.00 | 0.00 | 0.00 | 48 | 1014.0 |
| 20260831054604 | 87 | 165 | 11.0 | 16.0 | 0.00 | 0.00 | 0.00 | 48 | 1013.9 |
| 20260831054104 | 87 | 167 | 10.0 | 18.0 | 0.00 | 0.00 | 0.00 | 48 | 1013.9 |
| 20260831053604 | 87 | 172 | 12.0 | 18.0 | 0.00 | 0.00 | 0.00 | 47 | 1013.9 |
| 20260831053104 | 87 | 157 | 10.0 | 18.0 | 0.00 | 0.00 | 0.00 | 47 | 1013.8 |
| 20260831052104 | 87 | 181 | 10.0 | 18.0 | 0.00 | 0.00 | 0.00 | 47 | 1013.8 |
| 20260831051104 | 88 | 173 | 10.0 | 16.0 | 0.00 | 0.00 | 0.00 | 46 | 1013.7 |
| 20260831050604 | 88 | 175 | 11.0 | 17.0 | 0.00 | 0.00 | 0.00 | 46 | 1013.7 |
| 20260831050104 | 88 | 173 | 11.0 | 20.0 | 0.00 | 0.00 | 0.00 | 46 | 1013.7 |
| 20260831045104 | 88 | 154 | 12.0 | 20.0 | 0.00 | 0.00 | 0.00 | 46 | 1013.6 |
| 20260831044104 | 89 | 165 | 11.0 | 21.0 | 0.00 | 0.00 | 0.00 | 45 | 1013.6 |
| 20260831043604 | 89 | 165 | 10.0 | 21.0 | 0.00 | 0.00 | 0.00 | 46 | 1013.6 |
| 20260831043104 | 89 | 167 | 11.0 | 18.0 | 0.00 | 0.00 | 0.00 | 45 | 1013.5 |
| 20260831042604 | 89 | 176 | 10.0 | 18.0 | 0.00 | 0.00 | 0.00 | 45 | 1013.6 |
| 20260831042104 | 89 | 171 | 10.0 | 15.0 | 0.00 | 0.00 | 0.00 | 45 | 1013.6 |
| 20260831041603 | 89 | 168 | 9.0 | 14.0 | 0.00 | 0.00 | 0.00 | 45 | 1013.6 |
| 20260831041104 | 89 | 159 | 10.0 | 14.0 | 0.00 | 0.00 | 0.00 | 45 | 1013.6 |
| 20260831040603 | 89 | 163 | 9.0 | 14.0 | 0.00 | 0.00 | 0.00 | 45 | 1013.5 |
| 20260831040104 | 89 | 167 | 10.0 | 14.0 | 0.00 | 0.00 | 0.00 | 45 | 1013.5 |
| 20260831035604 | 89 | 163 | 10.0 | 15.0 | 0.00 | 0.00 | 0.00 | 45 | 1013.5 |
| 20260831035103 | 90 | 165 | 9.0 | 15.0 | 0.00 | 0.00 | 0.00 | 45 | 1013.4 |
| 20260831034604 | 90 | 164 | 9.0 | 13.0 | 0.00 | 0.00 | 0.00 | 45 | 1013.4 |
| 20260831034104 | 90 | 166 | 8.0 | 15.0 | 0.00 | 0.00 | 0.00 | 44 | 1013.4 |
| 20260831033104 | 90 | 174 | 9.0 | 16.0 | 0.00 | 0.00 | 0.00 | 44 | 1013.4 |
| 20260831032604 | 91 | 154 | 10.0 | 16.0 | 0.00 | 0.00 | 0.00 | 44 | 1013.5 |
| 20260831032104 | 91 | 160 | 10.0 | 16.0 | 0.00 | 0.00 | 0.00 | 44 | 1013.4 |
| 20260831031604 | 91 | 156 | 10.0 | 17.0 | 0.00 | 0.00 | 0.00 | 44 | 1013.4 |
| 20260831031104 | 91 | 171 | 8.0 | 17.0 | 0.00 | 0.00 | 0.00 | 44 | 1013.3 |
| 20260831030604 | 91 | 163 | 11.0 | 20.0 | 0.00 | 0.00 | 0.00 | 43 | 1013.2 |
| 20260831030104 | 92 | 167 | 12.0 | 20.0 | 0.00 | 0.00 | 0.00 | 43 | 1013.2 |
| 20260831025603 | 92 | 153 | 11.0 | 16.0 | 0.00 | 0.00 | 0.00 | 43 | 1013.2 |
| 20260831024603 | 92 | 152 | 12.0 | 16.0 | 0.00 | 0.00 | 0.00 | 42 | 1013.0 |
| 20260831024103 | 92 | 146 | 10.0 | 16.0 | 0.00 | 0.00 | 0.00 | 42 | 1012.9 |
| 20260831023604 | 93 | 161 | 9.0 | 17.0 | 0.00 | 0.00 | 0.00 | 42 | 1012.8 |
| 20260831022603 | 93 | 161 | 12.0 | 16.0 | 0.00 | 0.00 | 0.00 | 41 | 1012.6 |
| 20260831021604 | 93 | 151 | 10.0 | 20.0 | 0.00 | 0.00 | 0.00 | 40 | 1012.4 |
| 20260831021104 | 94 | 160 | 7.0 | 13.0 | 0.00 | 0.00 | 0.00 | 40 | 1012.4 |
| 20260831020603 | 94 | 155 | 8.0 | 13.0 | 0.00 | 0.00 | 0.00 | 39 | 1012.2 |
| 20260831015603 | 94 | 164 | 7.0 | 13.0 | 0.00 | 0.00 | 0.00 | 38 | 1012.1 |
| 20260831014604 | 95 | 148 | 7.0 | 12.0 | 0.00 | 0.00 | 0.00 | 38 | 1011.9 |
| 20260831014104 | 95 | 172 | 6.0 | 13.0 | 0.00 | 0.00 | 0.00 | 38 | 1011.9 |
| 20260831013604 | 95 | 172 | 7.0 | 13.0 | 0.00 | 0.00 | 0.00 | 37 | 1011.9 |
| 20260831013104 | 95 | 167 | 6.0 | 12.0 | 0.00 | 0.00 | 0.00 | 37 | 1011.8 |
| 20260831012104 | 95 | 164 | 5.0 | 8.0 | 0.00 | 0.00 | 0.00 | 37 | 1011.7 |
| 20260831011603 | 96 | 154 | 5.0 | 9.0 | 0.00 | 0.00 | 0.00 | 36 | 1011.7 |
| 20260831011104 | 96 | 163 | 6.0 | 10.0 | 0.00 | 0.00 | 0.00 | 36 | 1011.7 |
| 20260831010604 | 96 | 161 | 7.0 | 12.0 | 0.00 | 0.00 | 0.00 | 36 | 1011.7 |
| 20260831005603 | 97 | 181 | 6.0 | 12.0 | 0.00 | 0.00 | 0.00 | 36 | 1011.7 |
| 20260831005104 | 97 | 170 | 6.0 | 10.0 | 0.00 | 0.00 | 0.00 | 36 | 1011.6 |
| 20260831004604 | 97 | 180 | 7.0 | 12.0 | 0.00 | 0.00 | 0.00 | 35 | 1011.6 |
| 20260831004104 | 98 | 176 | 6.0 | 13.0 | 0.00 | 0.00 | 0.00 | 35 | 1011.6 |
| 20260831003603 | 98 | 168 | 9.0 | 13.0 | 0.00 | 0.00 | 0.00 | 35 | 1011.5 |
| 20260831003104 | 98 | 170 | 6.0 | 12.0 | 0.00 | 0.00 | 0.00 | 35 | 1011.5 |
| 20260831002604 | 99 | 184 | 7.0 | 13.0 | 0.00 | 0.00 | 0.00 | 35 | 1011.6 |
| 20260831001603 | 99 | 186 | 10.0 | 16.0 | 0.00 | 0.00 | 0.00 | 34 | 1011.5 |
| 20260831001104 | 99 | 178 | 10.0 | 16.0 | 0.00 | 0.00 | 0.00 | 33 | 1011.5 |
| 20260831000104 | 100 | 168 | 10.0 | 13.0 | 0.00 | 0.00 | 0.00 | 33 | 1011.5 |
| 20260830235104 | 100 | 174 | 7.0 | 15.0 | 0.00 | 0.00 | 0.00 | 32 | 1011.6 |
| 20260830234604 | 101 | 171 | 10.0 | 15.0 | 0.00 | 0.00 | 0.00 | 32 | 1011.5 |
| 20260830234104 | 101 | 190 | 6.0 | 14.0 | 0.00 | 0.00 | 0.00 | 32 | 1011.6 |
| 20260830233604 | 101 | 178 | 9.0 | 16.0 | 0.00 | 0.00 | 0.00 | 32 | 1011.6 |
| 20260830233103 | 101 | 178 | 8.0 | 16.0 | 0.00 | 0.00 | 0.00 | 31 | 1011.6 |
| 20260830232104 | 102 | 182 | 7.0 | 18.0 | 0.00 | 0.00 | 0.00 | 31 | 1011.5 |
| 20260830231603 | 101 | 181 | 10.0 | 18.0 | 0.00 | 0.00 | 0.00 | 31 | 1011.5 |
| 20260830231104 | 102 | 157 | 12.0 | 18.0 | 0.00 | 0.00 | 0.00 | 31 | 1011.5 |
| 20260830230603 | 102 | 183 | 10.0 | 17.0 | 0.00 | 0.00 | 0.00 | 31 | 1011.5 |
| 20260830230103 | 102 | 161 | 12.0 | 17.0 | 0.00 | 0.00 | 0.00 | 31 | 1011.5 |
| 20260830225603 | 102 | 168 | 11.0 | 16.0 | 0.00 | 0.00 | 0.00 | 31 | 1011.6 |
| 20260830225103 | 102 | 195 | 9.0 | 20.0 | 0.00 | 0.00 | 0.00 | 31 | 1011.6 |
| 20260830224604 | 102 | 192 | 10.0 | 20.0 | 0.00 | 0.00 | 0.00 | 31 | 1011.5 |
| 20260830223604 | 102 | 186 | 11.0 | 21.0 | 0.00 | 0.00 | 0.00 | 32 | 1011.5 |
| 20260830223104 | 102 | 168 | 10.0 | 21.0 | 0.00 | 0.00 | 0.00 | 31 | 1011.4 |
| 20260830222104 | 102 | 169 | 10.0 | 17.0 | 0.00 | 0.00 | 0.00 | 32 | 1011.4 |
| 20260830221604 | 102 | 154 | 10.0 | 17.0 | 0.00 | 0.00 | 0.00 | 31 | 1011.5 |
| 20260830221104 | 102 | 176 | 12.0 | 17.0 | 0.00 | 0.00 | 0.00 | 31 | 1011.5 |
| 20260830220603 | 103 | 176 | 12.0 | 18.0 | 0.00 | 0.00 | 0.00 | 31 | 1011.5 |
| 20260830220103 | 103 | 209 | 12.0 | 18.0 | 0.00 | 0.00 | 0.00 | 30 | 1011.5 |
| 20260830215605 | 103 | 172 | 12.0 | 18.0 | 0.00 | 0.00 | 0.00 | 31 | 1011.5 |
| 20260830215103 | 103 | 207 | 13.0 | 18.0 | 0.00 | 0.00 | 0.00 | 31 | 1011.6 |
| 20260830214603 | 103 | 206 | 8.0 | 16.0 | 0.00 | 0.00 | 0.00 | 31 | 1011.6 |
| 20260830214103 | 103 | 207 | 11.0 | 17.0 | 0.00 | 0.00 | 0.00 | 31 | 1011.7 |
| 20260830213603 | 103 | 155 | 8.0 | 18.0 | 0.00 | 0.00 | 0.00 | 30 | 1011.8 |
| 20260830213103 | 103 | 202 | 12.0 | 18.0 | 0.00 | 0.00 | 0.00 | 31 | 1011.9 |
| 20260830212104 | 103 | 200 | 9.0 | 16.0 | 0.00 | 0.00 | 0.00 | 31 | 1011.9 |
| 20260830211103 | 103 | 166 | 7.0 | 18.0 | 0.00 | 0.00 | 0.00 | 32 | 1012.1 |
| 20260830210603 | 103 | 161 | 12.0 | 21.0 | 0.00 | 0.00 | 0.00 | 32 | 1012.1 |
| 20260830210103 | 103 | 190 | 13.0 | 21.0 | 0.00 | 0.00 | 0.00 | 32 | 1012.2 |
| 20260830205604 | 103 | 184 | 9.0 | 17.0 | 0.00 | 0.00 | 0.00 | 32 | 1012.2 |
| 20260830204103 | 103 | 164 | 12.0 | 20.0 | 0.00 | 0.00 | 0.00 | 32 | 1012.5 |
| 20260830203604 | 103 | 180 | 7.0 | 17.0 | 0.00 | 0.00 | 0.00 | 32 | 1012.5 |
| 20260830202603 | 103 | 180 | 11.0 | 17.0 | 0.00 | 0.00 | 0.00 | 31 | 1012.7 |
| 20260830202104 | 103 | 161 | 9.0 | 17.0 | 0.00 | 0.00 | 0.00 | 32 | 1012.6 |
| 20260830201603 | 103 | 184 | 9.0 | 20.0 | 0.00 | 0.00 | 0.00 | 33 | 1012.8 |
| 20260830201103 | 103 | 186 | 13.0 | 20.0 | 0.00 | 0.00 | 0.00 | 32 | 1012.8 |
| 20260830200603 | 103 | 172 | 11.0 | 20.0 | 0.00 | 0.00 | 0.00 | 32 | 1013.0 |
| 20260830200103 | 103 | 208 | 12.0 | 18.0 | 0.00 | 0.00 | 0.00 | 33 | 1013.1 |
| 20260830195103 | 103 | 166 | 12.0 | 20.0 | 0.00 | 0.00 | 0.00 | 33 | 1013.0 |
| 20260830194604 | 102 | 196 | 13.0 | 18.0 | 0.00 | 0.00 | 0.00 | 33 | 1013.1 |
| 20260830194104 | 103 | 153 | 12.0 | 18.0 | 0.00 | 0.00 | 0.00 | 33 | 1013.2 |
| 20260830192604 | 102 | 204 | 12.0 | 20.0 | 0.00 | 0.00 | 0.00 | 34 | 1013.3 |
| 20260830192103 | 101 | 207 | 7.0 | 20.0 | 0.00 | 0.00 | 0.00 | 36 | 1013.3 |
| 20260830191603 | 102 | 173 | 12.0 | 20.0 | 0.00 | 0.00 | 0.00 | 35 | 1013.4 |
| 20260830191104 | 102 | 169 | 13.0 | 20.0 | 0.00 | 0.00 | 0.00 | 34 | 1013.4 |
| 20260830190603 | 102 | 166 | 13.0 | 20.0 | 0.00 | 0.00 | 0.00 | 35 | 1013.3 |
| 20260830190103 | 102 | 183 | 10.0 | 20.0 | 0.00 | 0.00 | 0.00 | 36 | 1013.4 |
| 20260830185603 | 101 | 191 | 10.0 | 20.0 | 0.00 | 0.00 | 0.00 | 36 | 1013.5 |
| 20260830185104 | 101 | 184 | 13.0 | 20.0 | 0.00 | 0.00 | 0.00 | 36 | 1013.5 |
| 20260830184604 | 101 | 181 | 11.0 | 23.0 | 0.00 | 0.00 | 0.00 | 38 | 1013.5 |
| 20260830183603 | 101 | 218 | 13.0 | 22.0 | 0.00 | 0.00 | 0.00 | 35 | 1013.8 |
| 20260830183104 | 101 | 197 | 14.0 | 21.0 | 0.00 | 0.00 | 0.00 | 37 | 1013.9 |
| 20260830182603 | 100 | 195 | 10.0 | 20.0 | 0.00 | 0.00 | 0.00 | 38 | 1013.9 |
| 20260830182103 | 101 | 195 | 13.0 | 20.0 | 0.00 | 0.00 | 0.00 | 38 | 1014.0 |
| 20260830181604 | 101 | 206 | 12.0 | 18.0 | 0.00 | 0.00 | 0.00 | 38 | 1014.1 |
| 20260830181103 | 100 | 227 | 11.0 | 23.0 | 0.00 | 0.00 | 0.00 | 38 | 1014.2 |
| 20260830180603 | 100 | 192 | 13.0 | 23.0 | 0.00 | 0.00 | 0.00 | 39 | 1014.2 |
| 20260830180103 | 100 | 180 | 16.0 | 23.0 | 0.00 | 0.00 | 0.00 | 38 | 1014.3 |
| 20260830175103 | 100 | 211 | 13.0 | 22.0 | 0.00 | 0.00 | 0.00 | 39 | 1014.4 |
| 20260830174603 | 100 | 187 | 13.0 | 22.0 | 0.00 | 0.00 | 0.00 | 39 | 1014.3 |
| 20260830174105 | 99 | 211 | 16.0 | 21.0 | 0.00 | 0.00 | 0.00 | 39 | 1014.4 |
| 20260830173605 | 100 | 216 | 12.0 | 21.0 | 0.00 | 0.00 | 0.00 | 40 | 1014.5 |
| 20260830173105 | 99 | 182 | 14.0 | 24.0 | 0.00 | 0.00 | 0.00 | 39 | 1014.6 |
| 20260830172605 | 99 | 192 | 11.0 | 24.0 | 0.00 | 0.00 | 0.00 | 40 | 1014.7 |
| 20260830172105 | 99 | 188 | 11.0 | 21.0 | 0.00 | 0.00 | 0.00 | 41 | 1014.8 |
| 20260830171605 | 99 | 230 | 12.0 | 21.0 | 0.00 | 0.00 | 0.00 | 41 | 1014.9 |
| 20260830171105 | 98 | 197 | 14.0 | 21.0 | 0.00 | 0.00 | 0.00 | 41 | 1014.9 |
| 20260830170604 | 98 | 224 | 15.0 | 21.0 | 0.00 | 0.00 | 0.00 | 41 | 1014.9 |
| 20260830170105 | 98 | 205 | 16.0 | 21.0 | 0.00 | 0.00 | 0.00 | 42 | 1014.9 |
| 20260830165605 | 98 | 217 | 15.0 | 21.0 | 0.00 | 0.00 | 0.00 | 41 | 1015.0 |
| 20260830165105 | 98 | 228 | 13.0 | 23.0 | 0.00 | 0.00 | 0.00 | 42 | 1015.1 |
| 20260830164605 | 98 | 211 | 13.0 | 23.0 | 0.00 | 0.00 | 0.00 | 41 | 1015.1 |
| 20260830164105 | 98 | 192 | 12.0 | 21.0 | 0.00 | 0.00 | 0.00 | 43 | 1015.1 |
| 20260830163605 | 97 | 216 | 16.0 | 22.0 | 0.00 | 0.00 | 0.00 | 42 | 1015.2 |
| 20260830163105 | 97 | 212 | 15.0 | 22.0 | 0.00 | 0.00 | 0.00 | 43 | 1015.2 |
| 20260830162605 | 97 | 191 | 13.0 | 21.0 | 0.00 | 0.00 | 0.00 | 44 | 1015.1 |
| 20260830161605 | 96 | 205 | 15.0 | 22.0 | 0.00 | 0.00 | 0.00 | 44 | 1015.2 |
| 20260830161105 | 96 | 189 | 12.0 | 21.0 | 0.00 | 0.00 | 0.00 | 45 | 1015.2 |
| 20260830160605 | 95 | 188 | 13.0 | 24.0 | 0.00 | 0.00 | 0.00 | 46 | 1015.2 |
| 20260830160105 | 95 | 197 | 15.0 | 24.0 | 0.00 | 0.00 | 0.00 | 46 | 1015.3 |
| 20260830155605 | 94 | 202 | 16.0 | 22.0 | 0.00 | 0.00 | 0.00 | 46 | 1015.2 |
| 20260830155105 | 94 | 198 | 14.0 | 24.0 | 0.00 | 0.00 | 0.00 | 47 | 1015.2 |
| 20260830154105 | 93 | 191 | 15.0 | 22.0 | 0.00 | 0.00 | 0.00 | 47 | 1015.2 |
| 20260830153605 | 92 | 203 | 17.0 | 23.0 | 0.00 | 0.00 | 0.00 | 48 | 1015.2 |
| 20260830153105 | 92 | 179 | 16.0 | 23.0 | 0.00 | 0.00 | 0.00 | 48 | 1015.1 |
| 20260830152605 | 92 | 187 | 15.0 | 21.0 | 0.00 | 0.00 | 0.00 | 49 | 1015.1 |
| 20260830152105 | 92 | 186 | 14.0 | 22.0 | 0.00 | 0.00 | 0.00 | 49 | 1015.2 |
| 20260830151605 | 92 | 199 | 15.0 | 22.0 | 0.00 | 0.00 | 0.00 | 49 | 1015.2 |
| 20260830150105 | 90 | 187 | 14.0 | 25.0 | 0.00 | 0.00 | 0.00 | 51 | 1015.2 |
| 20260830145604 | 90 | 198 | 16.0 | 25.0 | 0.00 | 0.00 | 0.00 | 52 | 1015.2 |
| 20260830145104 | 89 | 192 | 16.0 | 23.0 | 0.00 | 0.00 | 0.00 | 52 | 1015.3 |
| 20260830144604 | 89 | 188 | 13.0 | 24.0 | 0.00 | 0.00 | 0.00 | 52 | 1015.4 |
| 20260830144105 | 88 | 196 | 12.0 | 24.0 | 0.00 | 0.00 | 0.00 | 53 | 1015.3 |
| 20260830143605 | 88 | 180 | 13.0 | 24.0 | 0.00 | 0.00 | 0.00 | 54 | 1015.3 |
| 20260830143105 | 87 | 195 | 10.0 | 20.0 | 0.00 | 0.00 | 0.00 | 55 | 1015.4 |
| 20260830142605 | 87 | 200 | 13.0 | 20.0 | 0.00 | 0.00 | 0.00 | 55 | 1015.5 |
| 20260830142105 | 86 | 194 | 12.0 | 20.0 | 0.00 | 0.00 | 0.00 | 55 | 1015.5 |
| 20260830141605 | 86 | 187 | 10.0 | 18.0 | 0.00 | 0.00 | 0.00 | 56 | 1015.5 |
| 20260830141105 | 85 | 191 | 11.0 | 21.0 | 0.00 | 0.00 | 0.00 | 57 | 1015.5 |
| 20260830140605 | 85 | 173 | 12.0 | 21.0 | 0.00 | 0.00 | 0.00 | 57 | 1015.5 |
| 20260830140105 | 84 | 178 | 12.0 | 20.0 | 0.00 | 0.00 | 0.00 | 58 | 1015.6 |
| 20260830135605 | 84 | 195 | 13.0 | 18.0 | 0.00 | 0.00 | 0.00 | 58 | 1015.6 |
| 20260830135104 | 83 | 180 | 13.0 | 20.0 | 0.00 | 0.00 | 0.00 | 59 | 1015.6 |
| 20260830134105 | 82 | 183 | 11.0 | 20.0 | 0.00 | 0.00 | 0.00 | 60 | 1015.5 |
| 20260830133105 | 81 | 175 | 12.0 | 20.0 | 0.00 | 0.00 | 0.00 | 61 | 1015.5 |
| 20260830132605 | 81 | 179 | 12.0 | 20.0 | 0.00 | 0.00 | 0.00 | 61 | 1015.5 |
| 20260830132105 | 81 | 168 | 10.0 | 17.0 | 0.00 | 0.00 | 0.00 | 61 | 1015.5 |
| 20260830131605 | 80 | 175 | 10.0 | 17.0 | 0.00 | 0.00 | 0.00 | 62 | 1015.5 |
| 20260830131105 | 80 | 186 | 12.0 | 18.0 | 0.00 | 0.00 | 0.00 | 62 | 1015.5 |
| 20260830130605 | 80 | 184 | 10.0 | 20.0 | 0.00 | 0.00 | 0.00 | 62 | 1015.4 |
| 20260830125605 | 80 | 170 | 12.0 | 20.0 | 0.00 | 0.00 | 0.00 | 62 | 1015.4 |
| 20260830125104 | 80 | 163 | 12.0 | 20.0 | 0.00 | 0.00 | 0.00 | 62 | 1015.3 |
| 20260830124105 | 80 | 174 | 11.0 | 17.0 | 0.00 | 0.00 | 0.00 | 62 | 1015.2 |
| 20260830123104 | 80 | 168 | 13.0 | 20.0 | 0.00 | 0.00 | 0.00 | 62 | 1015.2 |
| 20260830122604 | 80 | 176 | 12.0 | 20.0 | 0.00 | 0.00 | 0.00 | 62 | 1015.1 |
| 20260830122105 | 79 | 169 | 12.0 | 18.0 | 0.00 | 0.00 | 0.00 | 62 | 1015.1 |
| 20260830121104 | 79 | 167 | 12.0 | 18.0 | 0.00 | 0.00 | 0.00 | 62 | 1014.9 |
| 20260830120105 | 80 | 170 | 12.0 | 20.0 | 0.00 | 0.00 | 0.00 | 62 | 1014.9 |
| 20260830115604 | 80 | 173 | 12.0 | 20.0 | 0.00 | 0.00 | 0.00 | 62 | 1014.8 |
| 20260830115105 | 80 | 171 | 10.0 | 17.0 | 0.00 | 0.00 | 0.00 | 61 | 1014.9 |
| 20260830114105 | 80 | 166 | 10.0 | 18.0 | 0.00 | 0.00 | 0.00 | 61 | 1015.0 |
| 20260830113604 | 80 | 180 | 11.0 | 18.0 | 0.00 | 0.00 | 0.00 | 61 | 1014.9 |
| 20260830113105 | 80 | 173 | 10.0 | 15.0 | 0.00 | 0.00 | 0.00 | 61 | 1014.9 |
| 20260830112605 | 80 | 172 | 10.0 | 17.0 | 0.00 | 0.00 | 0.00 | 61 | 1014.8 |
| 20260830112105 | 80 | 175 | 11.0 | 17.0 | 0.00 | 0.00 | 0.00 | 61 | 1014.8 |
| 20260830111605 | 80 | 161 | 10.0 | 18.0 | 0.00 | 0.00 | 0.00 | 61 | 1014.9 |
| 20260830110605 | 80 | 171 | 10.0 | 18.0 | 0.00 | 0.00 | 0.00 | 61 | 1014.7 |
| 20260830110105 | 80 | 161 | 10.0 | 16.0 | 0.00 | 0.00 | 0.00 | 61 | 1014.7 |
| 20260830105604 | 80 | 177 | 10.0 | 16.0 | 0.00 | 0.00 | 0.00 | 61 | 1014.7 |
| 20260830105104 | 80 | 174 | 10.0 | 18.0 | 0.00 | 0.00 | 0.00 | 61 | 1014.7 |
| 20260830104605 | 80 | 163 | 10.0 | 18.0 | 0.00 | 0.00 | 0.00 | 60 | 1014.7 |
| 20260830104105 | 80 | 176 | 8.0 | 18.0 | 0.00 | 0.00 | 0.00 | 60 | 1014.7 |
| 20260830103605 | 80 | 168 | 9.0 | 18.0 | 0.00 | 0.00 | 0.00 | 60 | 1014.7 |
| 20260830103105 | 80 | 176 | 9.0 | 14.0 | 0.00 | 0.00 | 0.00 | 60 | 1014.7 |
| 20260830102604 | 80 | 171 | 9.0 | 14.0 | 0.00 | 0.00 | 0.00 | 60 | 1014.6 |
| 20260830101604 | 80 | 174 | 9.0 | 14.0 | 0.00 | 0.00 | 0.00 | 59 | 1014.5 |
| 20260830101105 | 80 | 172 | 9.0 | 16.0 | 0.00 | 0.00 | 0.00 | 59 | 1014.5 |
| 20260830100605 | 81 | 169 | 10.0 | 16.0 | 0.00 | 0.00 | 0.00 | 59 | 1014.4 |
| 20260830100104 | 81 | 168 | 10.0 | 16.0 | 0.00 | 0.00 | 0.00 | 58 | 1014.4 |
| 20260830095605 | 81 | 179 | 9.0 | 15.0 | 0.00 | 0.00 | 0.00 | 58 | 1014.4 |
| 20260830094105 | 81 | 162 | 9.0 | 18.0 | 0.00 | 0.00 | 0.00 | 58 | 1014.4 |
| 20260830093104 | 81 | 166 | 11.0 | 18.0 | 0.00 | 0.00 | 0.00 | 58 | 1014.3 |
| 20260830092604 | 81 | 166 | 10.0 | 18.0 | 0.00 | 0.00 | 0.00 | 58 | 1014.3 |
| 20260830092104 | 81 | 166 | 9.0 | 18.0 | 0.00 | 0.00 | 0.00 | 57 | 1014.2 |
| 20260830091604 | 81 | 177 | 10.0 | 20.0 | 0.00 | 0.00 | 0.00 | 57 | 1014.2 |
| 20260830091105 | 81 | 173 | 10.0 | 20.0 | 0.00 | 0.00 | 0.00 | 57 | 1014.2 |
| 20260830090605 | 81 | 168 | 10.0 | 16.0 | 0.00 | 0.00 | 0.00 | 57 | 1014.2 |
| 20260830085605 | 81 | 160 | 9.0 | 15.0 | 0.00 | 0.00 | 0.00 | 57 | 1014.2 |
| 20260830085105 | 82 | 161 | 11.0 | 16.0 | 0.00 | 0.00 | 0.00 | 56 | 1014.1 |
| 20260830084604 | 82 | 170 | 10.0 | 16.0 | 0.00 | 0.00 | 0.00 | 56 | 1014.2 |
| 20260830084105 | 82 | 160 | 9.0 | 16.0 | 0.00 | 0.00 | 0.00 | 56 | 1014.2 |
| 20260830083105 | 82 | 163 | 10.0 | 17.0 | 0.00 | 0.00 | 0.00 | 55 | 1014.3 |
| 20260830082604 | 82 | 165 | 10.0 | 17.0 | 0.00 | 0.00 | 0.00 | 55 | 1014.2 |
| 20260830082105 | 82 | 169 | 11.0 | 17.0 | 0.00 | 0.00 | 0.00 | 55 | 1014.2 |
| 20260830081604 | 82 | 163 | 11.0 | 18.0 | 0.00 | 0.00 | 0.00 | 55 | 1014.2 |
| 20260830081105 | 82 | 164 | 11.0 | 20.0 | 0.00 | 0.00 | 0.00 | 55 | 1014.3 |
| 20260830080105 | 83 | 161 | 10.0 | 17.0 | 0.00 | 0.00 | 0.00 | 54 | 1014.1 |
| 20260830075605 | 83 | 162 | 10.0 | 16.0 | 0.00 | 0.00 | 0.00 | 54 | 1014.2 |
| 20260830075105 | 83 | 161 | 12.0 | 17.0 | 0.00 | 0.00 | 0.00 | 54 | 1014.1 |
| 20260830074606 | 83 | 160 | 11.0 | 17.0 | 0.00 | 0.00 | 0.00 | 53 | 1014.2 |
| 20260830074105 | 83 | 158 | 10.0 | 17.0 | 0.00 | 0.00 | 0.00 | 53 | 1014.3 |
| 20260830073605 | 84 | 159 | 10.0 | 17.0 | 0.00 | 0.00 | 0.00 | 52 | 1014.3 |
| 20260830073105 | 84 | 170 | 9.0 | 16.0 | 0.00 | 0.00 | 0.00 | 52 | 1014.3 |